Location: Estes Par
(40.3770°N, 105.5210°W)
Time: 12:29:24
(UTC-06:00)

Tiangong 1 - Pass Details

Date: 15 October 2017
Orbit: 293 x 320 km, 42.8° (Epoch: 19 October)

Event Time Altitude Azimuth Distance (km) Brightness Sun altitude
Rises 19:44:52 0° 282° (WNW) 2,033 6.4 -16.6°
Reaches altitude 10° 19:46:59 10° 270° (W) 1,197 4.9 -17.0°
Maximum altitude 19:49:21 28° 208° (SSW) 619 2.3 -17.5°
Enters shadow 19:49:53 25° 185° (S) 659 2.2 -17.6°
